Weather History for LEGE - March, 2013

Change the Weather History Date:

Sunday, March 31, 2013

  Actual Average Record
Temperature  
Mean Temperature 50 °F -  
Max Temperature 61 °F 66 °F 73 °F (2006)
Min Temperature 38 °F 44 °F 33 °F (1997)
Degree Days  
Heating Degree Days 16    
Moisture  
Dew Point 46 °F    
Average Humidity 90    
Maximum Humidity 100    
Minimum Humidity 59    
Precipitation  
Precipitation 0.00 in 0.10 in - ()
Sea Level Pressure  
Sea Level Pressure 29.70 in    
Wind  
Wind Speed 3 mph ()    
Max Wind Speed 14 mph    
Max Gust Speed 20 mph    
Visibility 5.9 miles    
Events Fog    
Averages and records for this station are not official NWS values.
T = Trace of Precipitation, MM = Missing Value Source: Averaged Metar Reports

Daily Weather History Graph

Daily Weather History Graph

Search for Another Location

Airport or City:

Trip Planner

Search our weather history database for the weather conditions in past years. The results will help you decide how hot, cold, wet, or windy it might be!

Date:

Astronomy

Mar. 31, 2013 Rise Set
Actual Time 7:33 AM CEST 8:13 PM CEST
Civil Twilight 7:05 AM CEST 8:41 PM CEST
Nautical Twilight 6:32 AM CEST 9:14 PM CEST
Astronomical Twilight 5:57 AM CEST 9:49 PM CEST
Moon 12:05 AM CET (3/31) 10:03 AM CEST (3/31)
Length of Visible Light 13h 36m
Length of Day
12h 40m
Waning Gibbous, 80% of the Moon is Illuminated
Mar 31
Waning Gibbous
Apr 3
Last Quarter
Apr 10
New
Apr 18
First Quarter
Apr 25
Full

Hourly Weather History & Observations

Time (CEST) Temp. Windchill Dew Point Humidity Pressure Visibility Wind Dir Wind Speed Gust Speed Precip Events Conditions
12:00 AM 44.6 °F - 44.6 °F 100% 29.74 in - NNE 2.3 mph - N/A   Clear
12:30 AM 44.6 °F - 44.6 °F 100% 29.74 in 6.2 mi Calm Calm - N/A   Partly Cloudy
1:00 AM 44 °F - 43 °F 97% 29.76 in 6 mi Calm Calm - -   Scattered Clouds
1:00 AM 44.6 °F - 44.6 °F 100% 29.74 in 6.2 mi Calm Calm - N/A   Partly Cloudy
1:30 AM 42.8 °F - 42.8 °F 100% 29.74 in 3.7 mi NE 2.3 mph - N/A Fog Patches of Fog
3:00 AM 42.8 °F - 42.8 °F 100% 29.74 in 3.1 mi West 2.3 mph - N/A Fog Patches of Fog
3:30 AM 42.8 °F - 42.8 °F 100% 29.74 in 3.1 mi Calm Calm - N/A Fog Patches of Fog
4:00 AM 41.0 °F - 41.0 °F 100% 29.74 in 3.1 mi NNE 1.2 mph - N/A Fog Patches of Fog
4:30 AM 42.8 °F - 42.8 °F 100% 29.74 in 3.1 mi Variable 1.2 mph - N/A Fog Patches of Fog
5:00 AM 42.8 °F - 42.8 °F 100% 29.71 in 5.0 mi Variable 2.3 mph - N/A Fog Patches of Fog
5:30 AM 42.8 °F 40.1 °F 42.8 °F 100% 29.71 in 6.2 mi NW 4.6 mph - N/A Fog Patches of Fog
6:00 AM 42.8 °F 41.1 °F 42.8 °F 100% 29.71 in 6.2 mi NNW 3.5 mph - N/A Fog Patches of Fog
6:30 AM 41.0 °F - 41.0 °F 100% 29.71 in 6.2 mi Variable 1.2 mph - N/A Fog Patches of Fog
7:00 AM 41.0 °F - 41.0 °F 100% 29.71 in 6.2 mi Calm Calm - N/A Fog Patches of Fog
7:30 AM 39.2 °F - 39.2 °F 100% 29.71 in 6.2 mi Variable 1.2 mph - N/A Fog Partly Cloudy
8:00 AM 40 °F - 40 °F 98% 29.74 in 34 mi Calm Calm - -   Scattered Clouds
8:00 AM 39.2 °F - 39.2 °F 100% 29.71 in 6.2 mi Calm Calm - N/A Fog Partly Cloudy
8:30 AM 41.0 °F - 41.0 °F 100% 29.74 in 6.2 mi Calm Calm - N/A Fog Partly Cloudy
9:00 AM 41.0 °F 39.0 °F 41.0 °F 100% 29.74 in 6.2 mi SSW 3.5 mph - N/A Fog Patches of Fog
9:30 AM 44.6 °F 42.2 °F 44.6 °F 100% 29.74 in 6.2 mi West 4.6 mph - N/A Fog Patches of Fog
10:00 AM 46.4 °F - 46.4 °F 100% 29.74 in 6.2 mi Variable 2.3 mph - N/A   Scattered Clouds
10:30 AM 50.0 °F - 46.4 °F 87% 29.74 in 6.2 mi Calm Calm - N/A   Partly Cloudy
11:00 AM 53.6 °F - 48.2 °F 82% 29.74 in 6.2 mi Calm Calm - N/A   Partly Cloudy
11:30 AM 53.6 °F - 48.2 °F 82% 29.74 in 6.2 mi Variable 1.2 mph - N/A   Partly Cloudy
12:00 PM 57.2 °F - 48.2 °F 72% 29.74 in 6.2 mi SE 1.2 mph - N/A   Scattered Clouds
12:30 PM 55.4 °F - 50.0 °F 82% 29.74 in 6.2 mi South 5.8 mph - N/A   Scattered Clouds
1:00 PM 57.2 °F - 51.8 °F 82% 29.74 in 6.2 mi South 10.4 mph - N/A   Scattered Clouds
1:30 PM 59.0 °F - 50.0 °F 72% 29.71 in 6.2 mi South 11.5 mph - N/A   Scattered Clouds
2:00 PM 60 °F - 49 °F 59% 29.70 in 6 mi South 12.7 mph - -   Mostly Cloudy
2:00 PM 59.0 °F - 50.0 °F 72% 29.71 in 6.2 mi South 10.4 mph - N/A   Mostly Cloudy
2:30 PM 59.0 °F - 50.0 °F 72% 29.71 in 6.2 mi SSW 12.7 mph - N/A   Mostly Cloudy
3:00 PM 57.2 °F - 50.0 °F 77% 29.71 in 6.2 mi SSW 13.8 mph - N/A   Mostly Cloudy
3:30 PM 57.2 °F - 50.0 °F 77% 29.68 in 6.2 mi South 13.8 mph - N/A   Mostly Cloudy
4:00 PM 57.2 °F - 50.0 °F 77% 29.68 in 6.2 mi South 13.8 mph - N/A   Scattered Clouds
4:30 PM 57.2 °F - 48.2 °F 72% 29.68 in 6.2 mi South 12.7 mph - N/A   Scattered Clouds
5:00 PM 55.4 °F - 50.0 °F 82% 29.65 in 6.2 mi SSW 13.8 mph - N/A   Scattered Clouds
5:30 PM 55.4 °F - 50.0 °F 82% 29.65 in 6.2 mi South 11.5 mph - N/A   Scattered Clouds
6:30 PM 55.4 °F - 48.2 °F 77% 29.65 in 6.2 mi SSE 9.2 mph - N/A   Scattered Clouds
7:00 PM 55.4 °F - 48.2 °F 77% 29.65 in 6.2 mi South 8.1 mph 19.6 mph N/A   Scattered Clouds
7:30 PM 53.6 °F - 48.2 °F 82% 29.65 in 6.2 mi SW 6.9 mph - N/A   Partly Cloudy
8:00 PM 51 °F - 46 °F 77% 29.66 in 9 mi SSW 5.8 mph - -   Scattered Clouds
8:00 PM 51.8 °F - 46.4 °F 82% 29.65 in 6.2 mi SSW 5.8 mph - N/A   Partly Cloudy
8:30 PM 50.0 °F - 48.2 °F 94% 29.65 in 6.2 mi Variable 2.3 mph - N/A   Partly Cloudy
9:00 PM 50.0 °F - 48.2 °F 94% 29.65 in 6.2 mi SSW 3.5 mph - N/A   Partly Cloudy
9:30 PM 50.0 °F - 48.2 °F 94% 29.65 in 6.2 mi SSW 3.5 mph - N/A   Partly Cloudy
10:00 PM 50.0 °F - 48.2 °F 94% 29.65 in 6.2 mi Calm Calm - N/A   Scattered Clouds
10:30 PM 50.0 °F - 48.2 °F 94% 29.65 in 6.2 mi Calm Calm - N/A   Mostly Cloudy
11:00 PM 50.0 °F - 48.2 °F 94% 29.65 in 6.2 mi Variable 2.3 mph - N/A   Mostly Cloudy
11:30 PM 50.0 °F - 48.2 °F 94% 29.62 in 6.2 mi Calm Calm - N/A   Mostly Cloudy
12:00 AM 50.0 °F - 48.2 °F 94% 29.62 in 6.2 mi Calm Calm - N/A   Mostly Cloudy
12:30 AM 48.2 °F - 48.2 °F 100% 29.62 in 6.2 mi Calm Calm - N/A   Scattered Clouds